Location: Freistadt
(48.5112°N, 14.5013°E)
Time: 05:44:46
(UTC+02:00)

CUBEBUG 2 - Pass Details

Date: 06 April 2023
Orbit: 577 x 686 km, 97.8° (Epoch: 29 May)

Event Time Altitude Azimuth Distance (km) Brightness Sun altitude
Rises 03:52:21 0° 11° (NNE) 3,059 ? -24.1°
Reaches altitude 10° 03:54:38 10° 10° (N) 2,130 ? -23.8°
Maximum altitude 03:59:17 74° 286° (WNW) 699 ? -23.2°
Enters shadow 03:59:36 71° 249° (WSW) 711 ? -23.2°
